Latest Weather Observations for Esperance Airport

IDW60801

Issued at 8:35 pm WST Wednesday 1 October 2014 (issued every 30 minutes, with the page automatically refreshed every 10 minutes)

About weather observations | Map of weather stations | Latest weather observations for WA | Other Formats
Station Details ID: 009542 Name: ESPERANCE AERO Lat: -33.68 Lon: 121.83 Height: 142.0 m
Data from the previous 72 hours. | See also: Recent months at Esperance Airport
Date/Time
WST
Temp
°C
App
Temp
°C
Dew
Point
Rel
Hum
%
Delta-T
°C
Wind Press
QNH
hPa
Press
MSL
hPa
Rain
since 9 am
mm
Dir
 
Spd
km/h
Gust
km/h
Spd
kts
Gust
kts
01/08:30pm 14.9 11.5 11.3 79 1.9 ENE 20 30 11 16 1022.2 1022.1 0.0
01/08:00pm 15.8 12.1 11.6 76 2.3 E 22 30 12 16 1022.1 1022.0 0.0
01/07:30pm 16.5 12.6 12.1 75 2.4 E 24 33 13 18 1022.1 1022.0 0.0
01/07:00pm 17.0 14.0 12.7 76 2.4 E 20 26 11 14 1022.0 1021.9 0.0
01/06:30pm 15.8 13.6 13.3 85 1.4 ESE 17 19 9 10 1021.7 1021.6 0.0
01/06:00pm 17.0 14.9 13.5 80 2.0 ESE 17 22 9 12 1021.6 1021.5 0.0
01/05:30pm 18.8 16.2 13.9 73 2.8 SE 20 30 11 16 1021.4 1021.3 0.0
01/05:00pm 20.4 17.4 13.8 66 3.8 ESE 22 30 12 16 1021.3 1021.2 0.0
01/04:30pm 21.0 17.2 13.7 63 4.2 SE 26 33 14 18 1021.3 1021.2 0.0
01/04:00pm 21.8 18.1 13.9 61 4.6 SE 26 35 14 19 1021.1 1021.0 0.0
01/03:30pm 24.6 21.9 10.5 41 7.9 E 15 22 8 12 1021.1 1021.0 0.0
01/03:00pm 24.8 21.7 11.7 44 7.5 E 19 26 10 14 1020.9 1020.8 0.0
01/02:30pm 24.9 22.5 11.5 43 7.6 ENE 15 20 8 11 1021.3 1021.2 0.0
01/02:00pm 24.3 21.2 11.6 45 7.2 ENE 19 24 10 13 1021.8 1021.7 0.0
01/01:30pm 24.3 22.2 12.3 47 6.9 NNE 15 22 8 12 1022.2 1022.1 0.0
01/01:00pm 23.1 19.2 10.9 46 6.8 ENE 22 32 12 17 1022.8 1022.7 0.0
01/12:30pm 23.0 20.0 12.0 50 6.3 E 19 22 10 12 1023.2 1023.1 0.0
01/12:00pm 22.5 19.9 11.9 51 6.0 NE 17 26 9 14 1024.1 1023.9 0.0
01/11:30am 21.8 18.9 12.4 55 5.4 ENE 19 30 10 16 1024.4 1024.2 0.0
01/11:00am 20.6 17.5 11.5 56 5.0 NE 19 28 10 15 1025.0 1024.8 0.0
01/10:30am 20.5 17.7 12.5 60 4.5 NNE 19 28 10 15 1025.3 1025.1 0.0
01/10:00am 19.6 17.0 13.1 66 3.7 NNE 19 26 10 14 1025.5 1025.3 0.0
01/09:30am 18.4 15.4 12.4 68 3.4 NE 20 28 11 15 1025.7 1025.5 0.0
01/09:00am 16.9 13.3 11.8 72 2.8 NE 22 33 12 18 1026.1 1025.9 0.0
01/08:30am 15.7 12.5 11.9 78 2.1 NE 20 30 11 16 1026.3 1026.1 0.0
01/08:00am 13.7 10.0 11.6 87 1.1 NNE 22 33 12 18 1026.4 1026.2 0.0
01/07:30am 12.2 7.9 10.9 92 0.7 NNE 24 35 13 19 1026.3 1026.3 0.0
01/07:00am 11.5 7.8 10.2 92 0.7 NNE 20 32 11 17 1026.4 1026.4 0.0
01/06:30am 10.7 7.4 9.5 92 0.6 NE 17 26 9 14 1026.4 1026.4 0.0
01/06:00am 10.1 7.0 9.0 93 0.5 NE 15 24 8 13 1026.2 1026.2 0.0
01/05:30am 10.1 6.7 9.0 93 0.5 NE 17 24 9 13 1026.0 1026.0 0.0
01/05:00am 10.2 6.4 9.0 92 0.6 NE 19 28 10 15 1026.0 1026.0 0.0
01/04:30am 10.1 7.0 8.9 92 0.6 NE 15 28 8 15 1026.0 1026.0 0.0
01/04:00am 10.0 6.9 8.8 92 0.6 NE 15 24 8 13 1026.0 1026.0 0.0
01/03:30am 9.8 6.6 8.6 92 0.6 NE 15 24 8 13 1026.0 1026.0 0.0
01/03:00am 10.0 6.9 8.9 93 0.5 NE 15 22 8 12 1026.0 1026.0 0.0
01/02:30am 9.5 6.6 8.3 92 0.6 ENE 13 24 7 13 1025.9 1025.9 0.0
01/02:00am 10.1 7.4 8.9 92 0.6 NE 13 19 7 10 1026.1 1026.1 0.0
01/01:30am 10.0 7.3 9.1 94 0.4 ENE 13 19 7 10 1026.4 1026.4 0.0
01/01:00am 10.0 7.7 8.9 93 0.5 ENE 11 19 6 10 1026.5 1026.5 0.0
01/12:30am 10.3 7.6 9.1 92 0.6 ENE 13 20 7 11 1026.7 1026.7 0.0
01/12:00am 10.2 7.5 8.8 91 0.7 ENE 13 17 7 9 1026.6 1026.6 0.0
 
Date/Time
WST
Temp
°C
App
Temp
°C
Dew
Point
Rel
Hum
%
Delta-T
°C
Wind Press
QNH
hPa
Press
MSL
hPa
Rain
since 9 am
mm
Dir
 
Spd
km/h
Gust
km/h
Spd
kts
Gust
kts
30/11:30pm 10.4 7.7 9.0 91 0.7 ENE 13 20 7 11 1026.6 1026.6 0.0
30/11:00pm 10.4 8.2 9.2 92 0.6 ENE 11 17 6 9 1026.5 1026.5 0.0
30/10:30pm 10.5 7.9 9.4 93 0.6 ENE 13 19 7 10 1026.6 1026.6 0.0
30/10:00pm 10.7 8.6 9.6 93 0.6 ENE 11 15 6 8 1026.6 1026.6 0.0
30/09:30pm 11.1 9.0 9.7 91 0.7 ENE 11 15 6 8 1026.7 1026.7 0.0
30/09:00pm 11.8 9.8 10.2 90 0.8 E 11 17 6 9 1026.6 1026.6 0.0
30/08:30pm 12.2 10.2 10.3 88 1.0 E 11 17 6 9 1026.5 1026.5 0.0
30/08:00pm 12.7 10.4 10.4 86 1.2 E 13 19 7 10 1026.2 1026.2 0.0
30/07:30pm 12.6 10.3 10.5 87 1.1 E 13 17 7 9 1026.0 1026.0 0.0
30/07:00pm 13.0 10.3 10.4 84 1.4 ESE 15 19 8 10 1025.7 1025.7 0.0
30/06:30pm 12.8 10.4 10.0 83 1.4 SE 13 15 7 8 1025.2 1025.1 0.0
30/06:00pm 13.6 11.2 10.0 79 1.9 SE 13 17 7 9 1024.9 1024.8 0.0
30/05:30pm 15.0 11.9 10.2 73 2.5 SE 17 22 9 12 1024.8 1024.7 0.0
30/05:00pm 16.0 12.5 10.1 68 3.1 SE 19 22 10 12 1024.6 1024.5 0.0
30/04:30pm 17.0 13.9 10.4 65 3.5 SE 17 20 9 11 1024.4 1024.3 0.0
30/04:00pm 17.9 14.4 10.8 63 3.8 S 20 26 11 14 1024.1 1024.0 0.0
30/03:30pm 17.2 13.7 10.8 66 3.5 SSE 20 24 11 13 1023.9 1023.8 0.0
30/03:00pm 17.6 14.0 10.7 64 3.7 SSE 20 28 11 15 1023.5 1023.5 0.0
30/02:30pm 19.9 17.9 11.4 58 4.7 S 13 19 7 10 1023.3 1023.3 0.0
30/02:00pm 19.2 18.0 11.7 62 4.1 SE 9 19 5 10 1023.5 1023.5 0.0
30/01:30pm 18.6 16.6 11.4 63 4.0 S 13 20 7 11 1023.5 1023.5 0.0
30/01:00pm 17.9 15.9 11.5 66 3.5 SE 13 20 7 11 1023.7 1023.7 0.0
30/12:30pm 18.1 17.0 10.5 61 4.1 SSE 7 13 4 7 1023.7 1023.7 0.0
30/12:00pm 17.6 15.1 11.2 66 3.5 S 15 20 8 11 1024.0 1023.9 0.0
30/11:30am 18.9 17.3 11.7 63 4.0 SSW 11 19 6 10 1024.1 1024.0 0.0
30/11:00am 17.6 15.2 11.4 67 3.4 S 15 20 8 11 1024.2 1024.1 0.0
30/10:30am 17.9 16.1 13.4 75 2.6 SSE 15 22 8 12 1024.3 1024.2 0.0
30/10:00am 15.1 12.4 12.8 86 1.3 WSW 19 22 10 12 1024.3 1024.2 0.0
30/09:30am 17.2 14.2 12.1 72 2.8 SW 19 26 10 14 1024.2 1024.1 0.0
30/09:00am 15.0 13.9 13.0 88 1.1 W 11 15 6 8 1024.0 1023.9 0.2
30/08:30am 14.2 12.9 13.7 97 0.3 W 13 15 7 8 1023.9 1023.8 0.2
30/08:15am 13.8 11.6 13.2 96 0.3 W 17 20 9 11 1023.6 1023.6 0.2
30/08:00am 13.5 11.6 12.9 96 0.3 W 15 20 8 11 1023.4 1023.4 0.2
30/07:57am 13.7 11.9 13.2 97 0.3 W 15 20 8 11 1023.4 1023.4 0.0
30/07:30am 13.7 12.2 13.1 96 0.3 W 13 19 7 10 1022.9 1022.9 0.0
30/07:28am 13.8 12.3 13.2 96 0.3 WSW 13 19 7 10 1022.9 1022.9 0.0
30/07:08am 13.4 11.9 13.1 98 0.2 W 13 19 7 10 1022.7 1022.7 0.0
30/07:00am 13.3 11.4 13.0 98 0.2 W 15 22 8 12 1022.6 1022.6 0.0
30/06:30am 13.0 12.1 12.7 98 0.2 W 9 11 5 6 1022.3 1022.3 0.0
30/06:00am 12.5 11.5 12.2 98 0.2 W 9 13 5 7 1021.8 1021.8 0.0
30/05:30am 11.9 10.2 11.3 96 0.3 W 11 11 6 6 1021.5 1021.5 0.0
30/05:00am 12.8 11.0 12.0 95 0.4 WSW 13 19 7 10 1021.1 1021.1 0.0
30/04:30am 13.2 12.3 12.7 97 0.3 WSW 9 15 5 8 1020.8 1020.8 0.0
30/04:00am 13.0 12.7 12.7 98 0.2 W 6 7 3 4 1020.4 1020.4 0.0
30/03:30am 13.0 12.1 12.5 97 0.3 WSW 9 13 5 7 1020.0 1020.0 0.0
30/03:00am 13.0 11.3 12.4 96 0.3 SW 13 17 7 9 1019.7 1019.7 0.0
30/02:57am 13.0 10.9 12.4 96 0.3 SW 15 20 8 11 1019.7 1019.7 0.0
30/02:30am 13.3 11.6 12.4 94 0.5 SW 13 24 7 13 1019.5 1019.4 0.0
30/02:28am 13.3 11.6 12.4 94 0.5 SW 13 24 7 13 1019.4 1019.3 0.0
30/02:00am 14.2 11.6 12.1 87 1.1 SSW 17 24 9 13 1019.2 1019.1 0.0
30/01:30am 14.3 11.7 12.0 86 1.2 SW 17 24 9 13 1019.1 1019.0 0.0
30/01:00am 14.2 11.7 12.2 88 1.1 SW 17 24 9 13 1019.2 1019.1 0.0
30/12:30am 13.4 12.1 12.5 94 0.5 SW 11 17 6 9 1019.1 1019.0 0.0
30/12:00am 12.6 11.0 11.7 94 0.5 WSW 11 13 6 7 1018.8 1018.7 0.0
 
Date/Time
WST
Temp
°C
App
Temp
°C
Dew
Point
Rel
Hum
%
Delta-T
°C
Wind Press
QNH
hPa
Press
MSL
hPa
Rain
since 9 am
mm
Dir
 
Spd
km/h
Gust
km/h
Spd
kts
Gust
kts
29/11:30pm 12.4 10.3 11.1 92 0.7 WSW 13 15 7 8 1018.8 1018.7 0.0
29/11:00pm 12.9 11.2 11.1 89 1.0 WSW 11 15 6 8 1018.7 1018.6 0.0
29/10:30pm 13.6 11.2 11.3 86 1.2 SW 15 19 8 10 1018.9 1018.8 0.0
29/10:00pm 13.8 11.8 11.5 86 1.2 SW 13 17 7 9 1018.9 1018.8 0.0
29/09:30pm 13.6 12.1 11.8 89 1.0 SW 11 15 6 8 1019.1 1019.0 0.0
29/09:00pm 13.4 11.2 12.0 91 0.8 SSW 15 17 8 9 1018.9 1018.8 0.0
29/08:30pm 13.3 11.4 11.9 91 0.8 SW 13 15 7 8 1018.6 1018.5 0.0
29/08:00pm 13.3 11.8 11.9 91 0.8 SW 11 15 6 8 1018.3 1018.2 0.0
29/07:30pm 14.2 11.7 12.2 88 1.1 SSW 17 20 9 11 1017.6 1017.5 0.0
29/07:00pm 15.0 12.3 12.9 87 1.2 SSW 19 24 10 13 1017.0 1016.9 0.0
29/06:30pm 15.1 12.9 13.3 89 1.0 S 17 22 9 12 1016.5 1016.4 0.0
29/06:00pm 15.1 13.9 12.8 86 1.3 SSW 11 15 6 8 1015.4 1015.4 0.0
29/05:30pm 16.7 14.6 12.5 76 2.3 SSW 15 19 8 10 1014.9 1014.9 0.0
29/05:00pm 17.7 14.3 12.4 71 3.0 SSW 22 30 12 16 1014.6 1014.6 0.0
29/04:30pm 19.2 14.5 10.7 58 4.6 SW 26 35 14 19 1014.1 1014.1 0.0
29/04:00pm 20.1 15.7 10.5 54 5.2 SW 24 33 13 18 1013.7 1013.7 0.0
29/03:30pm 20.1 15.1 10.8 55 5.1 SW 28 41 15 22 1013.7 1013.7 0.0
29/03:00pm 19.6 15.4 11.1 58 4.7 SW 24 35 13 19 1013.3 1013.2 0.0
29/02:30pm 21.3 17.6 11.6 54 5.4 SW 22 30 12 16 1013.2 1013.1 0.0
29/02:00pm 20.4 13.6 9.3 49 5.9 WSW 35 44 19 24 1013.3 1013.2 0.0
29/01:30pm 21.9 15.5 10.7 49 6.2 W 35 52 19 28 1013.5 1013.4 0.0
29/01:23pm 20.9 14.8 10.4 51 5.7 W 33 52 18 28 1013.5 1013.4 0.0
29/01:00pm 21.8 14.4 9.7 46 6.6 W 39 56 21 30 1013.6 1013.5 0.0
29/12:30pm 20.0 13.4 10.1 53 5.4 W 35 50 19 27 1013.7 1013.7 0.0
29/12:00pm 20.9 14.2 9.8 49 6.0 W 35 48 19 26 1013.9 1013.9 0.0
29/11:30am 21.0 15.3 11.9 56 5.1 W 33 46 18 25 1014.2 1014.2 0.0
29/11:00am 20.5 14.9 12.0 58 4.8 W 33 43 18 23 1014.2 1014.2 0.0
29/10:30am 18.8 13.5 11.4 62 4.1 W 30 35 16 19 1014.4 1014.4 0.0
29/10:00am 18.8 13.8 12.1 65 3.7 W 30 39 16 21 1014.6 1014.6 0.0
29/09:30am 17.6 13.1 12.5 72 2.8 W 28 35 15 19 1014.8 1014.8 0.0
29/09:00am 17.3 12.3 12.2 72 2.8 W 30 43 16 23 1014.8 1014.8 0.0
29/08:30am 16.9 12.7 12.4 75 2.5 W 26 35 14 19 1014.8 1014.8 0.0
29/08:00am 15.6 10.8 11.8 78 2.1 W 28 37 15 20 1014.7 1014.7 0.0
29/07:30am 14.6 10.2 11.6 82 1.6 WNW 26 33 14 18 1014.7 1014.7 0.0
29/07:00am 13.5 9.3 11.2 86 1.2 WNW 24 33 13 18 1014.6 1014.6 0.0
29/06:30am 12.5 9.1 11.1 91 0.7 WNW 20 28 11 15 1014.5 1014.5 0.0
29/06:00am 11.4 8.4 10.5 94 0.5 WNW 17 19 9 10 1014.3 1014.3 0.0
29/05:30am 11.3 8.2 10.4 94 0.5 WNW 17 20 9 11 1014.1 1014.1 0.0
29/05:00am 11.9 8.9 10.8 93 0.6 WNW 17 20 9 11 1014.0 1014.0 0.0
29/04:30am 12.2 8.6 10.6 90 0.8 WNW 20 26 11 14 1014.0 1014.0 0.0
29/04:00am 13.2 9.7 10.9 86 1.2 WNW 20 26 11 14 1013.9 1013.9 0.0
29/03:30am 14.2 10.8 11.4 83 1.5 NW 20 28 11 15 1013.7 1013.7 0.0
29/03:00am 14.5 11.2 11.6 83 1.6 WNW 20 28 11 15 1013.7 1013.7 0.0
29/02:30am 14.2 11.1 11.5 84 1.5 WNW 19 24 10 13 1013.7 1013.7 0.0
29/02:00am 14.2 11.4 11.2 82 1.6 NW 17 24 9 13 1013.7 1013.7 0.0
29/01:30am 14.5 11.4 11.5 82 1.6 NW 19 26 10 14 1013.9 1013.9 0.0
29/01:00am 14.2 11.1 11.5 84 1.5 NW 19 22 10 12 1013.9 1013.9 0.0
29/12:30am 14.1 11.1 11.8 86 1.2 NNW 19 26 10 14 1013.9 1013.9 0.0
29/12:00am 13.3 11.3 12.7 96 0.3 N 15 20 8 11 1014.0 1014.0 0.0
 
Date/Time
WST
Temp
°C
App
Temp
°C
Dew
Point
Rel
Hum
%
Delta-T
°C
Wind Press
QNH
hPa
Press
MSL
hPa
Rain
since 9 am
mm
Dir
 
Spd
km/h
Gust
km/h
Spd
kts
Gust
kts
28/11:30pm 13.0 11.4 12.7 98 0.2 N 13 17 7 9 1014.1 1014.1 0.0
28/11:00pm 12.8 10.4 12.6 99 0.1 NNE 17 20 9 11 1014.4 1014.4 0.0
28/10:30pm 12.5 10.4 12.3 99 0.1 NNE 15 20 8 11 1014.8 1014.8 0.0
28/10:00pm 12.3 10.9 12.1 99 0.1 NNE 11 15 6 8 1015.1 1015.1 0.0
28/09:30pm 12.2 10.7 12.0 99 0.1 NNE 11 13 6 7 1015.5 1015.5 0.0
28/09:00pm 11.3 10.3 11.0 98 0.2 NNE 7 9 4 5 1015.7 1015.7 0.0

Other Formats:

Comma delimited format used in spreadsheet applications
http://www.bom.gov.au/fwo/IDW60801/IDW60801.95638.axf

JavaScript Object Notation format (JSON) in row-major order
http://www.bom.gov.au/fwo/IDW60801/IDW60801.95638.json